PLEIADES 1A

Last updated on Mon Sep 07 2026 00:02:45 GMT+0000 (Coordinated Universal Time)

1 38012U 11076F 26249.64324631 .00000305 00000+0 75358-4 0 9990 2 38012 98.1916 323.6271 0001046 96.4831 63.7623 14.58570347783869
UTC large
Height (km)
Speed (km/s)
/
Latitude / Longitude
Inclination (degrees)
Orbital Period (minutes)
Azimuth
Elevation
Range (km)
Doppler Factor

Next 0 passes for location: London (51.5072 / 0.1276)

No passes found over London.
PLEIADES 1A